User: anonymous   Login
Location: Krasnoyarskiy Pitomnik
(51.1333°N, 71.6167°E)
Time: 10:44:15
(UTC+00:00)
Language:

Cosmos 1953 Rocket - Orbit

View from above orbital plane
View from above orbital plane
View from above satellite
View from above satellite

Ground track
Ground track

The orbit data is extracted from the following two-line orbital elements,

1 19211U 88050B   22019.50529041  .00000226  00000-0  24721-4 0  9995
2 19211  82.5251  73.4634 0021569 353.9695   6.1257 14.83156705794314
Epoch (UTC): 19 January 2022 12:07:37
Eccentricity: 0.0021569
inclination: 82.5251°
perigee height: 604 km
apogee height: 634 km
right ascension of ascending node: 73.4634°
argument of perigee: 353.9695°
revolutions per day: 14.83156705
mean anomaly at epoch: 6.1257°
orbit number at epoch: 79431

The dashed part of the orbit path shows where the satellite is in the earth's shadow,  

DLR